Tracking 18980 objects as of 19-Feb-2018
HD Live streaming from Space Station
objects crossing your sky now

FENGYUN 1C DEB

Track FENGYUN 1C DEB now!
10-day predictions


NORAD ID: 30249
Int'l Code: 1999-025XJ
Perigee: 806.7 km
Apogee: 878.6 km
Inclination: 99.0 °
Period: 101.6 minutes
Semi major axis: 7213 km
RCS: 0.0363 m2 (small)
Launch date: May 10, 1999
Source: People's Republic of China (PRC)
Launch site: Taiyaun Space Center, China (TSC)

Note: This is SATELLITE DEBRIS
aabbcc
Your satellite tracking list
Your tracking list is empty




NASA's NSSDC Master Catalog

Two Line Element Set (TLE):
1 30249U 99025XJ  18049.16490310 +.00000910 +00000-0 +47003-3 0  9996
2 30249 098.9771 116.3793 0049804 006.1402 047.0390 14.16998030570308
Source of the keplerian elements: AFSPC